星链-31053 (STARLINK-31053 )

导读 | 星芒AI

STARLINK-31053 是 SpaceX 星链(Starlink)卫星互联网项目中的第 31053 颗卫星。该卫星属于星链计划的低轨卫星群,旨在为全球用户提供高速、低延迟的互联网服务。它采用可部署太阳能板和先进通信技术,支持宽带数据传输。该卫星的发射和运行有助于扩展星链网络的覆盖范围,特别是在偏远和网络基础设施薄弱的地区。作为星链计划的一部分,STARLINK-31053 由 SpaceX 自动化生产线制造,并通过猎鹰 9 号火箭发射入轨。

基本信息
目录编号:
58549
目录名称:
STARLINK-31053
国际标识:
2023-192U
轨道中心:
EARTH
卫星名称:
星链-31053
卫星全名:
星链-31053 (STARLINK-31053 )
卫星状态:
在轨 (已飞行742 天)
发射日期:
2023-12-08 UTC
国别 :
美国 (US)
星等 :
--
轨道信息
数据来源 国际轨道数据 AOE轨道数据
星历时间 2025-12-19T13:39:58+0800
16小时前
查看轨道信息
2025-12-17T10:00:00+0800
2天前
查看轨道信息
半长轴 6853.399km 6853.353km
偏心率 0.0001309 0.0001619
轨道倾角 53.161° 53.162°
近地点辐角 82.799° 77.740°
升交点赤经 76.718° 86.716°
平近点角 277.316° 296.945°
近地点 474.364km 474.108km
远地点 476.16km 476.328km
周期 94.106分钟 94.105分钟
每日圈数 15.301845 15.301998
详细信息
固有亮度:
5
最大亮度:
0.3
卫星平台:
Starlink v2.0 mini
覆盖范围:
全球
运营商:
太空探索技术公司
运营商所在国:
美国
制造商(研发单位):
太空探索技术公司
制造商所在国:
美国
使用方式:
暂无
卫星简介
星链(Starlink)计划是由太空探索技术公司(SpaceX)提出的一个巨型低轨卫星互联网星座项目,计划在2019年至2024年间在太空搭建由约1.2万颗卫星组成的“星链”网络,其中1584颗将部署在地球上空550千米处的近地轨道,并从2020年开始工作。该卫星仍在工作。
2D轨道图
3D轨道图
轨道高度分析图
轨道倾角分析图
轨道综合分析图
查看轨道综合分析图